• In Netherlands
  • List of Countries
  • For 7 days
  • Water Temperature
  • Satellite Maps
  • Weather Map
  • Weather Widgets
  • user-avatar
    Login

    Hourly Weather Dinagepoor

    Today, 19 September, Tuesday

    Time Temperature Precipitation Wind Pressure Humidity
    00:00 +30°C° 0 mm 1 mps 750 mmHg 84%
    01:00 +29°C° 0.1 mm 1 mps 750 mmHg 84%
    02:00 +29°C° 0.1 mm 2 mps 750 mmHg 85%
    03:00 +29°C° 0.1 mm 2 mps 749 mmHg 85%
    04:00 +29°C° 0 mm 2 mps 749 mmHg 85%
    05:00 +29°C° 0 mm 2 mps 749 mmHg 86%
    06:00 +28°C° 0 mm 2 mps 749 mmHg 87%
    07:00 +29°C° 0.5 mm 3 mps 750 mmHg 85%
    08:00 +30°C° 0.5 mm 4 mps 750 mmHg 82%
    09:00 +32°C° 0.5 mm 4 mps 750 mmHg 80%
    10:00 +33°C° 2.5 mm 5 mps 750 mmHg 77%
    11:00 +33°C° 2.5 mm 5 mps 750 mmHg 74%
    12:00 +35°C° 0 mm 4 mps 750 mmHg 70%
    13:00 +35°C° 1.1 mm 4 mps 749 mmHg 68%
    14:00 +35°C° 1.1 mm 4 mps 749 mmHg 65%
    15:00 +36°C° 1.1 mm 4 mps 748 mmHg 63%
    16:00 +35°C° 0.2 mm 3 mps 748 mmHg 67%
    17:00 +34°C° 0.2 mm 3 mps 748 mmHg 71%
    18:00 +32°C° 0.2 mm 2 mps 748 mmHg 75%
    19:00 +31°C° 2.1 mm 2 mps 749 mmHg 78%
    20:00 +31°C° 2.1 mm 3 mps 749 mmHg 80%
    21:00 +30°C° 2.1 mm 3 mps 750 mmHg 83%
    22:00 +30°C° 0.7 mm 3 mps 750 mmHg 85%
    23:00 +29°C° 0.7 mm 3 mps 750 mmHg 86%

    Tomorrow, 20 September, Wednesday

    Time Temperature Precipitation Wind Pressure Humidity
    00:00 +29°C° 0.7 mm 3 mps 750 mmHg 88%
    01:00 +29°C° 0.6 mm 3 mps 750 mmHg 89%
    02:00 +29°C° 0.6 mm 3 mps 749 mmHg 90%
    03:00 +28°C° 0.6 mm 4 mps 749 mmHg 91%
    04:00 +28°C° 0.6 mm 4 mps 749 mmHg 91%
    05:00 +28°C° 0.6 mm 3 mps 749 mmHg 91%
    06:00 +28°C° 0.6 mm 3 mps 750 mmHg 91%
    07:00 +29°C° 0.3 mm 4 mps 750 mmHg 87%
    08:00 +30°C° 0.3 mm 5 mps 751 mmHg 83%
    09:00 +32°C° 0.3 mm 5 mps 751 mmHg 79%
    10:00 +33°C° 1 mm 5 mps 751 mmHg 76%
    11:00 +34°C° 1 mm 5 mps 751 mmHg 73%
    12:00 +34°C° 1 mm 5 mps 751 mmHg 69%
    13:00 +34°C° 2.9 mm 5 mps 750 mmHg 71%
    14:00 +34°C° 2.9 mm 5 mps 750 mmHg 72%
    15:00 +34°C° 2.9 mm 5 mps 749 mmHg 73%
    16:00 +33°C° 2.2 mm 5 mps 749 mmHg 77%
    17:00 +32°C° 2.2 mm 4 mps 749 mmHg 81%
    18:00 +30°C° 2.2 mm 4 mps 749 mmHg 85%
    19:00 +29°C° 0.6 mm 4 mps 750 mmHg 86%
    20:00 +29°C° 0.6 mm 4 mps 751 mmHg 87%
    21:00 +29°C° 0.6 mm 3 mps 751 mmHg 88%
    22:00 +29°C° 2 mm 3 mps 751 mmHg 89%
    23:00 +29°C° 2 mm 3 mps 751 mmHg 91%

    Day after tomorrow, 21 September, Thursday

    Time Temperature Precipitation Wind Pressure Humidity
    00:00 +28°C° 2 mm 3 mps 751 mmHg 92%
    01:00 +28°C° 2.4 mm 3 mps 751 mmHg 92%
    02:00 +28°C° 2.4 mm 3 mps 750 mmHg 92%
    03:00 +28°C° 2.4 mm 3 mps 750 mmHg 93%
    04:00 +28°C° 2.2 mm 3 mps 750 mmHg 92%
    05:00 +28°C° 2.2 mm 3 mps 751 mmHg 91%
    06:00 +28°C° 2.2 mm 3 mps 751 mmHg 90%
    07:00 +29°C° 1.2 mm 4 mps 751 mmHg 87%
    08:00 +30°C° 1.2 mm 4 mps 752 mmHg 84%
    09:00 +32°C° 1.2 mm 4 mps 753 mmHg 81%
    10:00 +33°C° 1.2 mm 4 mps 752 mmHg 77%
    11:00 +34°C° 1.2 mm 4 mps 752 mmHg 74%
    12:00 +34°C° 1.2 mm 4 mps 752 mmHg 70%
    13:00 +34°C° 1.8 mm 4 mps 751 mmHg 71%
    14:00 +34°C° 1.8 mm 3 mps 750 mmHg 72%
    15:00 +34°C° 1.8 mm 3 mps 749 mmHg 72%
    16:00 +33°C° 1.3 mm 3 mps 749 mmHg 76%
    17:00 +31°C° 1.3 mm 2 mps 749 mmHg 80%
    18:00 +30°C° 1.3 mm 2 mps 749 mmHg 84%
    19:00 +30°C° 0 mm 2 mps 750 mmHg 86%
    20:00 +30°C° 0 mm 2 mps 751 mmHg 87%
    21:00 +29°C° 0 mm 2 mps 751 mmHg 88%
    22:00 +29°C° 0.1 mm 2 mps 751 mmHg 89%
    23:00 +29°C° 0.1 mm 2 mps 751 mmHg 89%

    22 September, Friday

    Time Temperature Precipitation Wind Pressure Humidity
    00:00 +29°C° 0.1 mm 2 mps 751 mmHg 90%
    01:00 +29°C° 1.9 mm 1 mps 751 mmHg 91%
    02:00 +28°C° 1.9 mm 1 mps 751 mmHg 92%
    03:00 +28°C° 1.9 mm 1 mps 750 mmHg 92%
    04:00 +28°C° 1.1 mm 1 mps 750 mmHg 92%
    05:00 +28°C° 1.1 mm 1 mps 751 mmHg 91%
    06:00 +28°C° 1.1 mm 1 mps 751 mmHg 91%
    07:00 +29°C° 0.6 mm 2 mps 752 mmHg 86%
    08:00 +31°C° 0.6 mm 2 mps 752 mmHg 82%
    09:00 +32°C° 0.6 mm 2 mps 753 mmHg 78%
    10:00 +34°C° 0.6 mm 2 mps 753 mmHg 73%
    11:00 +35°C° 0.6 mm 2 mps 752 mmHg 68%
    12:00 +36°C° 0.6 mm 2 mps 752 mmHg 63%
    13:00 +36°C° 0 mm 2 mps 751 mmHg 62%
    14:00 +35°C° 0 mm 1 mps 750 mmHg 60%
    15:00 +35°C° 0 mm 1 mps 749 mmHg 59%
    16:00 +34°C° 0 mm 1 mps 749 mmHg 63%
    17:00 +34°C° 0 mm 1 mps 749 mmHg 67%
    18:00 +33°C° 0 mm 1 mps 749 mmHg 70%
    19:00 +32°C° 0 mm 1 mps 750 mmHg 72%
    20:00 +32°C° 0 mm 1 mps 750 mmHg 73%
    21:00 +31°C° 0 mm 1 mps 751 mmHg 75%
    22:00 +31°C° 0.3 mm 1 mps 751 mmHg 77%
    23:00 +31°C° 0.3 mm 2 mps 751 mmHg 79%

    23 September, Saturday

    Time Temperature Precipitation Wind Pressure Humidity
    00:00 +30°C° 0.3 mm 2 mps 751 mmHg 81%
    01:00 +30°C° 0.6 mm 2 mps 751 mmHg 83%
    02:00 +30°C° 0.6 mm 1 mps 751 mmHg 84%
    03:00 +30°C° 0.6 mm 1 mps 750 mmHg 86%
    04:00 +29°C° 0.8 mm 1 mps 751 mmHg 87%
    05:00 +29°C° 0.8 mm 1 mps 751 mmHg 87%
    06:00 +29°C° 0.8 mm 1 mps 751 mmHg 88%
    07:00 +30°C° 2.1 mm 1 mps 752 mmHg 83%
    08:00 +31°C° 2.1 mm 1 mps 752 mmHg 79%
    09:00 +32°C° 2.1 mm 1 mps 753 mmHg 74%
    10:00 +33°C° 0.5 mm 1 mps 753 mmHg 71%
    11:00 +34°C° 0.5 mm 1 mps 752 mmHg 67%
    12:00 +34°C° 0.5 mm 1 mps 752 mmHg 63%
    13:00 +35°C° 0.1 mm 1 mps 751 mmHg 62%
    14:00 +35°C° 0.1 mm 1 mps 751 mmHg 62%
    15:00 +35°C° 0.1 mm 1 mps 750 mmHg 62%
    16:00 +34°C° 0 mm 1 mps 750 mmHg 66%
    17:00 +33°C° 0 mm 1 mps 750 mmHg 71%
    18:00 +32°C° 0 mm 2 mps 750 mmHg 76%
    19:00 +32°C° 0 mm 2 mps 751 mmHg 78%
    20:00 +31°C° 0 mm 2 mps 751 mmHg 80%
    21:00 +31°C° 0 mm 2 mps 752 mmHg 82%
    22:00 +30°C° 0.1 mm 2 mps 752 mmHg 83%
    23:00 +30°C° 0.1 mm 1 mps 752 mmHg 83%

    24 September, Sunday

    Time Temperature Precipitation Wind Pressure Humidity
    00:00 +30°C° 0.1 mm 1 mps 752 mmHg 84%
    01:00 +30°C° 0.4 mm 1 mps 751 mmHg 85%
    02:00 +29°C° 0.4 mm 1 mps 751 mmHg 86%
    03:00 +29°C° 0.4 mm 1 mps 751 mmHg 87%
    04:00 +29°C° 0.1 mm 1 mps 751 mmHg 88%
    05:00 +29°C° 0.1 mm 2 mps 751 mmHg 88%
    06:00 +29°C° 0.1 mm 2 mps 752 mmHg 89%
    07:00 +30°C° 0.2 mm 2 mps 752 mmHg 84%
    08:00 +31°C° 0.2 mm 2 mps 753 mmHg 80%
    09:00 +32°C° 0.2 mm 2 mps 753 mmHg 76%
    10:00 +34°C° 0.3 mm 2 mps 753 mmHg 71%
    11:00 +35°C° 0.3 mm 2 mps 752 mmHg 66%
    12:00 +35°C° 0.3 mm 1 mps 752 mmHg 62%
    13:00 +35°C° 0 mm 1 mps 751 mmHg 60%
    14:00 +36°C° 0 mm 1 mps 750 mmHg 59%
    15:00 +36°C° 0 mm 1 mps 750 mmHg 57%
    16:00 +33°C° 0.1 mm 0 mps 750 mmHg 61%
    17:00 +32°C° 0.1 mm 0 mps 750 mmHg 64%
    18:00 +31°C° 0.1 mm 0 mps 750 mmHg 68%
    19:00 +31°C° 0.1 mm 0 mps 750 mmHg 69%
    20:00 +30°C° 0.1 mm 0 mps 751 mmHg 71%
    21:00 +32°C° 0.1 mm 1 mps 751 mmHg 73%
    22:00 +31°C° 0.4 mm 1 mps 751 mmHg 74%
    23:00 +29°C° 0.4 mm 0 mps 751 mmHg 76%
    Show more